Retour au catalogue

COSMOS 1562

ActifMilitaireLEO
NORAD 15001·PAYLOAD·🇷🇺 Russia

Lancé May 28, 1984 depuis Plesetsk Cosmodrome

Loading…

Prochains Passages (prochaines 24 heures)

TLE

FraisSource: Space-Track

Époque: Sep 14, 2026, 19:31 UTC

1 15001U 84052D   26257.81335921 -.00000006  00000-0  65990-4 0  9990
2 15001  74.0128 196.9718 0015323 345.5279  41.5839 12.49966711929984

Suivez COSMOS 1562 en temps réel avec AllMySat

Download on the App Store